Temperature
20 19 19 19 18 18 18 18 18 18 18 18 18 17 17 17 17 17 17 17 17 17 17 17 17 17 17 17 17 17 17 17 16 16 16 16 16 15 15 15 15 15 15
20 19 19 19 18 18 18 18 18 18 18 18 18 17 17 17 17 17 17 17 17 17 17 17 17 17 17 17 17 17 17 16 16 16 16 16 15 15 15 15 15 14 14
20 19 19 19 18 18 18 18 18 18 18 18 17 17 17 17 17 17 17 17 17 17 17 17 17 16 16 16 16 16 16 16 16 16 16 16 15 15 14 14 14 14 13
20 19 19 19 18 18 18 18 18 18 18 17 17 17 17 17 17 17 17 17 16 16 16 16 16 16 16 16 16 16 16 16 16 16 16 15 15 14 14 14 13 13 13
20 19 19 19 18 18 18 18 18 18 18 17 17 17 17 17 17 17 16 16 16 16 16 16 16 16 16 16 16 16 16 15 15 15 15 15 14 14 14 13 13 12 12
20 20 19 19 18 18 18 18 18 18 17 17 17 17 17 17 17 16 16 16 16 16 16 16 16 16 16 15 15 15 15 15 15 15 15 14 14 14 13 13 12 12 11
20 19 19 19 18 18 18 18 18 17 17 17 17 17 17 16 16 16 16 16 16 16 16 16 16 15 15 15 15 15 15 15 15 15 15 14 14 14 13 13 12 12 12
20 19 19 18 18 18 18 18 17 17 17 17 17 16 16 16 16 16 16 16 16 15 15 15 15 15 15 15 15 15 15 15 14 14 14 14 14 13 13 13 12 12 11
20 19 19 19 18 18 18 17 17 17 17 17 16 16 16 16 16 16 15 15 15 15 15 15 15 15 15 15 14 14 14 14 14 14 13 13 13 12 12 12 11 11 11
20 19 19 18 18 18 18 17 17 17 17 16 16 16 16 15 15 15 15 15 15 15 15 14 14 14 14 14 14 14 14 13 13 13 13 12 12 12 12 11 11 11 11
19 19 18 18 18 18 17 17 17 16 16 16 16 15 15 15 15 15 15 14 14 14 14 14 14 13 13 13 13 13 13 13 12 12 12 12 11 11 11 11 11 11 10
19 18 18 18 17 17 17 17 16 16 15 15 15 15 14 14 14 14 14 14 14 13 13 13 13 13 12 12 12 12 12 12 12 11 11 11 11 11 10 10 10 10 10
18 18 18 17 17 17 16 16 16 15 15 15 14 14 14 14 14 14 14 13 13 13 13 12 12 12 12 12 11 11 11 11 11 11 11 10 10 10 10 10 9 9 9
17 17 17 17 16 16 16 15 15 15 15 14 14 14 14 14 13 13 13 13 13 12 12 12 12 11 11 11 11 11 10 10 10 10 10 10 10 9 9 9 9 9 9
16 16 16 16 16 15 15 15 14 14 14 14 14 14 13 13 13 13 13 12 12 12 12 11 11 11 11 11 10 10 10 10 10 10 9 9 9 9 9 9 8 8 8
15 15 15 15 15 15 14 14 14 14 13 13 13 13 13 12 12 12 12 11 11 11 11 11 11 10 10 10 10 10 9 9 9 9 9 9 9 9 8 8 8 8 8
15 15 14 14 14 14 14 13 13 13 13 13 12 12 12 12 11 11 11 11 11 10 10 10 10 10 10 9 9 9 9 9 9 8 8 8 8 8 8 8 8 8 8
14 14 14 14 13 13 13 13 13 12 12 12 12 11 11 11 11 11 11 10 10 10 10 9 9 9 9 9 9 9 8 8 8 8 8 8 8 8 8 8 8 8 7
13 13 13 13 12 12 12 12 12 12 11 11 11 11 11 10 10 10 10 10 10 9 9 9 9 9 9 8 8 8 8 8 8 8 8 8 8 8 8 8 8 7 7
13 12 12 12 12 11 11 11 11 11 11 10 10 10 10 10 10 10 9 9 9 9 9 9 8 8 8 8 8 8 8 8 7 7 7 7 7 7 7 7 7 7 7
12 12 11 11 11 11 11 10 10 10 10 10 10 9 9 9 9 9 9 9 8 8 8 8 8 8 8 8 8 7 7 7 7 7 7 7 7 7 7 7 7 7 7
11 11 11 11 11 11 10 10 10 10 10 9 9 9 9 9 9 8 8 8 8 8 8 8 8 8 7 7 7 7 7 7 7 7 7 7 7 7 7 7 7 6 6
11 11 11 10 10 10 10 10 10 10 9 9 9 9 9 9 8 8 8 8 8 8 7 7 7 7 7 7 7 7 7 7 7 7 7 7 7 7 6 6 6 6 6
10 10 10 10 10 10 10 10 10 9 9 9 9 9 9 8 8 8 8 8 8 8 7 7 7 7 7 7 7 7 7 7 7 7 6 6 6 6 6 6 6 6 6
10 10 10 10 10 10 9 9 9 9 9 9 9 9 9 8 8 8 8 8 8 8 8 7 7 7 7 7 7 7 7 6 6 6 6 6 6 6 6 6 6 6 6
10 10 10 10 10 10 9 9 9 9 9 9 9 8 8 8 8 8 8 8 8 8 8 7 7 7 7 7 7 7 6 6 6 6 6 6 6 6 6 6 6 5 5
Wind_Speed
7 6 6 5 5 5 4 5 5 4 4 5 5 5 5 5 5 4 5 5 5 4 4 4 5 4 3 3 3 4 4 4 4 2 1 2 3 4 5 7 8 9 10
7 6 6 5 4 4 4 4 4 4 4 4 4 5 5 5 5 5 5 4 5 5 4 4 4 4 4 4 4 4 4 4 4 4 2 2 3 4 5 5 6 7 9
7 7 6 5 5 5 4 4 4 4 3 3 4 4 5 5 5 5 4 4 5 5 5 5 5 4 4 4 4 4 4 4 3 5 4 3 2 3 4 4 5 4 6
8 7 7 6 6 5 4 4 4 3 3 3 3 4 4 4 4 4 4 4 4 4 4 4 4 4 5 5 4 4 4 4 4 5 4 3 3 3 4 4 3 2 3
9 8 7 6 5 5 4 4 3 3 3 3 3 3 3 3 3 4 4 4 4 3 2 2 3 4 5 4 4 4 4 5 5 5 5 4 4 4 5 4 5 4 2
9 8 7 6 5 5 4 4 3 2 2 2 2 2 2 2 3 4 4 3 3 2 2 1 1 1 2 2 3 4 5 6 7 6 5 6 6 5 5 6 6 5 3
8 7 7 6 6 6 5 4 3 3 2 2 2 2 2 1 2 3 3 2 2 2 2 2 2 1 0 0 1 1 2 4 6 7 7 8 7 8 8 8 7 6 4
7 7 6 6 6 5 5 4 3 2 3 2 2 2 2 1 2 2 2 2 1 1 1 2 1 0 0 1 1 1 1 0 2 3 6 6 6 7 9 8 8 5 3
7 6 6 7 6 6 5 4 3 3 2 2 2 2 2 1 1 2 2 2 1 1 0 1 1 1 0 2 3 2 1 1 3 5 6 6 8 10 10 7 6 6 4
7 6 6 6 7 6 6 5 3 3 3 3 2 2 2 2 2 2 3 2 2 1 1 1 2 1 2 3 3 3 2 1 2 3 5 5 6 8 9 8 8 7 4
6 5 5 5 6 6 5 4 3 3 3 3 3 2 2 2 2 2 3 2 3 2 1 0 0 1 2 2 2 2 3 3 2 3 3 3 3 3 3 4 5 6 6
5 5 5 4 4 5 5 4 3 4 4 3 2 2 1 1 2 3 3 3 4 3 3 2 1 2 2 2 1 2 4 4 3 3 3 2 2 2 2 3 4 5 4
6 5 4 4 3 4 4 4 3 3 3 3 3 3 2 1 1 3 4 4 4 3 3 4 3 2 1 1 2 4 3 3 3 3 3 3 2 3 3 3 3 4 4
5 4 4 4 4 3 3 3 3 2 3 3 3 3 2 2 2 1 2 2 3 3 2 2 2 2 1 1 2 1 1 2 3 3 3 2 2 3 3 3 3 3 2
4 4 3 4 5 4 4 3 2 1 1 2 3 3 3 3 3 4 3 3 3 3 3 2 1 1 1 1 1 1 1 1 2 2 3 3 3 3 2 2 3 3 3
4 3 2 3 4 4 4 3 7 4 4 3 1 1 1 2 3 3 4 5 5 6 4 2 2 2 3 2 2 2 1 2 3 3 3 3 4 4 3 2 2 3 3
3 3 3 2 3 3 3 3 2 3 6 6 4 3 2 2 4 4 4 4 4 5 2 2 2 3 3 2 2 2 2 2 2 3 3 3 4 4 4 4 4 3 3
3 3 2 2 2 2 2 2 3 3 1 1 3 3 3 3 3 4 4 5 2 1 1 2 2 2 3 3 3 3 2 2 2 2 3 3 4 4 4 4 5 5 4
2 2 2 2 2 2 2 2 2 2 2 2 1 2 2 3 3 3 3 2 2 2 2 2 2 2 2 3 3 3 3 3 3 3 3 3 3 4 4 4 5 6 5
2 3 4 3 2 2 2 2 2 2 2 2 2 2 1 2 1 1 1 1 1 2 2 2 2 2 2 3 3 3 3 3 3 3 3 3 3 4 4 5 5 5 4
1 2 4 3 3 2 2 2 2 2 2 2 2 2 4 2 2 2 2 2 2 3 3 3 2 2 2 2 2 3 3 3 3 3 4 4 3 4 4 4 5 5 4
2 2 2 3 3 2 2 2 2 2 2 2 1 1 4 2 2 2 3 3 3 3 2 2 2 2 3 3 3 3 3 3 3 3 3 3 3 4 4 4 4 4 4
2 2 2 2 2 2 2 2 2 2 2 2 2 2 3 3 3 3 3 3 3 3 3 3 2 2 3 4 4 4 4 4 4 4 4 4 3 4 4 4 5 4 4
2 2 2 2 1 1 2 2 2 2 2 2 2 3 3 3 3 3 3 3 3 3 3 3 3 4 4 4 5 6 7 7 6 6 6 5 4 4 4 4 4 4 4
2 2 2 2 2 2 2 1 1 1 2 2 2 2 3 3 3 3 3 3 3 3 3 4 4 4 6 6 5 6 7 8 7 7 6 5 5 5 4 4 4 3 3
1 2 2 2 2 2 2 2 2 2 2 2 2 3 3 3 3 4 4 4 4 4 4 4 6 7 7 7 8 8 7 8 9 9 8 5 5 5 5 4 5 4 4
Wind_Direction
182 186 186 193 200 201 204 214 219 222 211 202 200 199 200 203 206 205 212 206 205 216 224 220 231 228 227 225 211 205 203 186 209 223 176 153 152 156 147 151 157 158 159
181 182 188 188 186 193 209 215 210 212 210 204 192 192 199 201 199 203 213 208 203 210 220 218 234 238 232 230 223 219 214 198 191 201 195 176 172 171 159 153 156 161 159
175 178 185 185 186 197 206 205 200 200 202 198 192 197 202 205 204 206 209 211 215 218 218 218 231 227 234 229 225 223 220 211 185 181 195 182 171 163 147 145 138 135 148
174 178 185 190 193 196 198 194 196 196 197 205 206 205 206 206 202 205 202 204 215 225 224 221 227 225 226 229 229 221 209 196 180 174 177 172 164 156 149 155 149 144 155
173 180 187 190 189 186 187 191 195 200 210 211 207 208 206 200 205 200 204 207 208 218 224 224 231 227 220 220 222 214 202 193 183 177 178 178 177 171 180 174 170 156 151
174 182 182 179 178 180 182 179 176 184 183 168 173 183 196 214 199 191 193 198 196 190 210 258 268 258 228 220 213 212 203 195 193 185 191 192 194 187 176 173 166 162 185
170 177 178 175 177 182 175 162 167 181 163 150 159 151 142 161 185 180 186 173 181 183 192 226 256 270 295 160 156 217 215 200 192 191 192 197 191 187 178 179 182 182 184
169 173 177 173 174 173 164 167 178 170 157 157 149 139 139 152 141 131 129 125 137 167 193 202 190 235 325 116 125 95 73 95 186 181 190 194 190 183 182 180 174 155 119
164 172 176 171 168 165 164 169 169 161 160 157 154 152 155 167 149 144 127 120 131 139 114 93 120 124 68 126 123 129 114 59 82 119 136 149 160 161 160 148 151 155 163
178 178 174 170 169 170 170 170 167 165 167 157 154 158 167 178 174 151 130 131 147 153 64 59 76 96 112 122 134 144 152 174 120 102 97 103 122 141 155 167 170 171 160
172 162 159 163 167 166 164 165 160 160 155 155 156 157 158 169 174 167 156 161 173 177 173 181 5 106 125 137 142 165 180 158 129 122 115 109 107 119 134 149 164 169 169
142 147 152 155 163 162 152 157 159 159 163 171 175 192 204 184 184 192 184 182 176 173 188 194 190 147 134 148 154 150 140 130 125 124 130 141 152 161 161 148 151 158 162
138 148 151 147 148 148 154 160 162 168 181 197 200 212 225 216 201 196 190 183 173 171 180 181 173 162 143 140 157 153 146 145 150 158 176 198 200 183 152 132 118 114 100
136 142 144 142 133 115 117 137 158 179 193 204 215 221 218 202 205 189 183 174 160 155 157 152 148 143 138 150 153 164 174 181 181 189 192 189 159 146 151 148 145 138 117
117 122 127 129 129 115 93 65 96 120 199 206 220 209 203 220 234 212 190 189 186 179 151 132 134 148 179 196 204 227 201 175 184 187 182 177 169 166 169 159 152 146 153
110 114 123 125 125 126 122 85 45 50 39 51 62 161 183 190 174 176 184 178 171 163 148 171 198 204 209 211 215 232 224 207 201 190 188 189 187 188 186 169 158 164 171
107 117 117 121 134 151 155 148 133 49 51 48 47 72 109 135 145 156 165 165 160 152 154 190 207 212 220 221 221 224 228 226 207 193 189 195 196 188 180 180 179 175 183
102 108 116 131 147 157 165 163 162 160 140 33 31 50 87 110 125 135 134 122 119 162 202 211 223 225 226 226 227 226 225 220 210 205 199 200 199 190 189 191 188 187 186
115 135 133 132 139 137 133 136 146 148 141 129 104 47 66 89 89 100 127 136 171 197 216 222 222 220 224 228 231 223 213 211 212 209 217 212 202 192 198 202 194 188 181
124 126 121 121 122 119 129 141 146 144 144 152 164 165 133 101 102 145 199 231 214 218 219 222 228 225 220 221 222 219 214 214 213 217 222 220 208 198 194 189 184 181 184
127 130 127 124 127 137 148 157 158 157 165 175 190 185 167 173 201 212 220 229 229 228 225 222 226 232 231 225 217 212 210 215 214 214 216 214 205 195 191 185 182 177 167
138 145 144 148 150 151 156 159 160 168 180 187 204 197 187 196 218 224 222 231 233 230 224 217 227 235 225 211 203 198 204 214 218 212 209 205 196 184 175 171 169 166 165
132 138 136 142 149 158 160 162 170 183 192 201 202 194 195 216 228 226 226 231 232 233 231 222 226 236 227 215 205 196 199 214 218 205 193 187 179 172 168 170 173 173 184
122 130 136 140 138 152 164 176 183 184 189 202 204 202 207 213 222 228 229 229 225 228 229 226 225 223 221 227 227 219 217 220 219 208 189 178 175 172 170 173 180 188 191
113 116 123 136 140 141 143 157 177 192 200 206 213 218 218 216 223 231 231 232 233 235 234 225 226 230 229 225 225 229 232 224 215 203 192 178 176 178 178 182 183 186 192
119 134 136 140 145 152 156 164 181 196 213 223 224 227 227 224 227 233 233 229 232 239 241 235 232 229 230 230 234 235 234 230 225 215 200 183 180 187 185 188 193 195 200
Height
1537 1538 1539 1539 1540 1540 1540 1541 1541 1542 1542 1543 1544 1545 1546 1547 1548 1549 1550 1551 1552 1553 1553 1554 1554 1555 1555 1555 1556 1556 1557 1557 1557 1557 1558 1559 1560 1561 1562 1562 1563 1564 1564
1536 1537 1538 1538 1538 1538 1539 1539 1539 1539 1540 1540 1541 1542 1543 1544 1544 1545 1546 1547 1548 1548 1549 1550 1550 1550 1551 1551 1551 1552 1552 1552 1553 1552 1553 1554 1555 1557 1558 1559 1559 1560 1561
1535 1536 1536 1536 1537 1537 1537 1537 1538 1538 1538 1538 1539 1539 1540 1541 1541 1542 1543 1543 1544 1545 1545 1545 1546 1546 1546 1546 1547 1547 1547 1548 1548 1549 1549 1550 1551 1552 1553 1554 1555 1556 1557
1534 1534 1535 1535 1535 1535 1536 1536 1536 1536 1536 1536 1537 1537 1537 1538 1538 1539 1540 1540 1540 1541 1541 1541 1541 1541 1541 1542 1542 1542 1542 1543 1543 1544 1544 1545 1546 1547 1549 1550 1551 1552 1552
1532 1532 1533 1534 1534 1534 1534 1534 1534 1534 1534 1535 1535 1535 1535 1535 1536 1536 1537 1537 1537 1537 1537 1537 1537 1537 1537 1537 1537 1537 1538 1538 1538 1539 1539 1540 1541 1542 1544 1545 1547 1548 1549
1530 1530 1531 1532 1532 1533 1533 1533 1533 1533 1533 1533 1533 1533 1533 1533 1533 1533 1534 1534 1534 1534 1533 1534 1534 1533 1533 1533 1533 1533 1533 1533 1533 1534 1534 1535 1536 1537 1539 1541 1542 1543 1544
1528 1529 1530 1530 1530 1531 1531 1531 1531 1531 1531 1531 1531 1531 1531 1531 1531 1531 1531 1531 1531 1531 1530 1530 1530 1529 1529 1529 1528 1528 1528 1528 1529 1530 1529 1530 1531 1532 1534 1536 1537 1538 1539
1525 1526 1527 1528 1528 1529 1529 1529 1529 1529 1529 1529 1529 1529 1529 1529 1529 1528 1528 1528 1528 1528 1528 1527 1527 1526 1525 1525 1525 1524 1524 1524 1524 1524 1525 1526 1528 1529 1530 1532 1533 1534 1536
1523 1524 1524 1525 1525 1526 1526 1526 1527 1527 1527 1527 1527 1527 1527 1526 1526 1526 1526 1526 1525 1525 1525 1525 1524 1523 1523 1522 1522 1521 1520 1520 1520 1520 1521 1522 1523 1525 1526 1527 1529 1530 1531
1520 1521 1521 1522 1522 1523 1524 1524 1524 1525 1525 1525 1525 1524 1524 1524 1524 1524 1523 1523 1523 1523 1522 1522 1521 1521 1520 1519 1519 1518 1517 1517 1517 1517 1518 1519 1520 1521 1522 1524 1525 1526 1527
1517 1518 1519 1519 1520 1520 1521 1522 1522 1522 1522 1522 1522 1522 1521 1521 1521 1521 1520 1520 1520 1519 1519 1519 1518 1518 1518 1517 1517 1516 1516 1515 1515 1515 1516 1516 1517 1518 1519 1520 1522 1523 1524
1514 1515 1516 1516 1517 1517 1518 1519 1519 1519 1519 1519 1519 1519 1519 1518 1518 1518 1517 1517 1517 1516 1516 1516 1516 1516 1515 1515 1514 1514 1514 1514 1513 1513 1514 1514 1515 1516 1517 1518 1519 1520 1522
1511 1512 1513 1514 1514 1515 1515 1516 1516 1516 1516 1516 1516 1515 1515 1515 1515 1514 1514 1514 1513 1513 1513 1513 1513 1513 1512 1512 1512 1512 1512 1512 1511 1511 1512 1512 1513 1514 1515 1515 1516 1518 1519
1509 1510 1510 1511 1511 1512 1512 1512 1513 1513 1513 1513 1512 1512 1512 1511 1511 1511 1510 1510 1510 1510 1510 1510 1510 1510 1510 1509 1509 1509 1509 1509 1509 1510 1510 1510 1511 1512 1512 1513 1514 1515 1517
1507 1507 1508 1508 1508 1509 1509 1509 1509 1509 1509 1509 1509 1509 1508 1508 1508 1507 1507 1506 1506 1506 1506 1506 1506 1506 1506 1506 1506 1506 1506 1507 1507 1507 1508 1508 1509 1510 1511 1512 1513 1514 1515
1505 1505 1505 1506 1506 1506 1506 1506 1506 1506 1505 1505 1506 1506 1505 1505 1504 1504 1504 1503 1503 1503 1503 1503 1503 1503 1503 1503 1503 1503 1504 1504 1504 1505 1506 1507 1507 1508 1509 1510 1511 1513 1514
1502 1503 1503 1503 1503 1503 1503 1503 1503 1503 1502 1502 1502 1502 1502 1502 1501 1500 1500 1500 1500 1500 1500 1500 1500 1500 1500 1500 1501 1501 1501 1502 1502 1503 1504 1505 1506 1506 1507 1509 1510 1511 1512
1500 1500 1500 1500 1500 1501 1501 1501 1501 1500 1499 1499 1499 1499 1499 1499 1498 1497 1497 1497 1497 1497 1497 1497 1497 1497 1497 1497 1498 1498 1499 1499 1500 1501 1501 1502 1504 1504 1505 1506 1508 1509 1510
1498 1498 1498 1498 1498 1498 1498 1498 1498 1498 1497 1497 1497 1496 1496 1496 1496 1495 1495 1495 1494 1494 1494 1495 1495 1495 1495 1495 1495 1496 1496 1497 1498 1498 1499 1500 1501 1502 1503 1504 1505 1507 1508
1496 1496 1496 1496 1496 1496 1496 1496 1496 1496 1495 1495 1495 1494 1494 1494 1493 1493 1492 1492 1492 1492 1492 1492 1492 1492 1492 1493 1493 1494 1494 1494 1495 1496 1497 1497 1498 1499 1500 1502 1503 1505 1506
1495 1495 1494 1494 1494 1495 1495 1494 1494 1494 1494 1493 1493 1493 1493 1492 1492 1491 1491 1490 1490 1490 1490 1490 1490 1490 1490 1490 1490 1491 1492 1492 1493 1493 1494 1495 1496 1497 1498 1499 1501 1502 1504
1494 1494 1493 1493 1493 1493 1493 1493 1493 1493 1492 1492 1492 1492 1491 1491 1490 1490 1489 1489 1489 1489 1489 1488 1488 1488 1488 1488 1488 1488 1489 1489 1490 1491 1491 1492 1493 1495 1496 1497 1499 1500 1501
1494 1493 1493 1493 1493 1492 1492 1492 1492 1492 1492 1491 1491 1490 1490 1490 1489 1488 1488 1488 1488 1487 1487 1486 1486 1486 1486 1486 1486 1486 1487 1487 1488 1489 1489 1490 1491 1492 1494 1495 1496 1498 1499
1494 1493 1493 1492 1492 1492 1491 1491 1491 1491 1491 1490 1490 1489 1489 1488 1488 1488 1487 1487 1486 1486 1485 1485 1485 1485 1484 1484 1484 1485 1485 1485 1486 1487 1487 1488 1489 1490 1491 1492 1494 1495 1497
1493 1493 1492 1492 1492 1491 1491 1491 1490 1490 1490 1490 1489 1489 1488 1488 1487 1487 1487 1486 1486 1485 1484 1484 1484 1484 1483 1483 1483 1483 1483 1484 1484 1485 1485 1486 1487 1488 1489 1490 1491 1492 1494
1492 1492 1492 1492 1492 1491 1491 1491 1490 1490 1490 1489 1489 1488 1488 1487 1487 1486 1486 1486 1485 1484 1484 1483 1483 1482 1482 1482 1482 1481 1481 1482 1482 1482 1483 1484 1484 1485 1486 1487 1488 1489 1490